| time (UTC) | temp F | wind direction | speed knots | gust knots | rain 1hr in | rain 24hr in | rain mn in | humidity % | barometer mb |
| 20260508005244 | 55 | 318 | 2.6 | 3.5 | 0.00 | 0.01 | 0.01 | 43 | 1007.7 |
| 20260508004739 | 55 | 301 | 3.5 | 4.3 | 0.00 | 0.01 | 0.01 | 42 | 1007.8 |
| 20260508004236 | 55 | 305 | 2.6 | 3.5 | 0.00 | 0.01 | 0.01 | 42 | 1007.8 |
| 20260508003732 | 55 | 311 | 4.3 | 5.2 | 0.00 | 0.01 | 0.01 | 42 | 1007.7 |
| 20260508003230 | 55 | 320 | 4.3 | 4.3 | 0.00 | 0.01 | 0.01 | 42 | 1007.7 |
| 20260508002726 | 56 | 240 | 0.9 | 6.1 | 0.00 | 0.01 | 0.01 | 43 | 1007.6 |
| 20260508002224 | 55 | 331 | 4.3 | 5.2 | 0.00 | 0.01 | 0.01 | 41 | 1007.5 |
| 20260508001719 | 56 | 297 | 1.7 | 4.3 | 0.00 | 0.01 | 0.01 | 42 | 1007.5 |
| 20260508001215 | 55 | 301 | 1.7 | 2.6 | 0.00 | 0.01 | 0.01 | 44 | 1007.4 |
| 20260508000712 | 56 | 270 | 0.0 | 4.3 | 0.00 | 0.01 | 0.01 | 41 | 1007.4 |
| 20260508000211 | 56 | 309 | 2.6 | 4.3 | 0.00 | 0.01 | 0.01 | 42 | 1007.4 |
| 20260507235705 | 57 | 307 | 2.6 | 6.1 | 0.00 | 0.01 | 0.01 | 40 | 1007.3 |
| 20260507235203 | 57 | 293 | 1.7 | 4.3 | 0.00 | 0.01 | 0.01 | 40 | 1007.5 |
| 20260507234659 | 57 | 289 | 0.9 | 3.5 | 0.00 | 0.01 | 0.01 | 40 | 1007.3 |
| 20260507234156 | 57 | 331 | 6.1 | 11.3 | 0.00 | 0.01 | 0.01 | 38 | 1007.0 |
| 20260507233653 | 58 | 338 | 2.6 | 13.9 | 0.00 | 0.01 | 0.01 | 38 | 1007.0 |
| 20260507233151 | 58 | 0 | 1.7 | 5.2 | 0.00 | 0.01 | 0.01 | 38 | 1007.0 |
| 20260507232648 | 58 | 317 | 6.1 | 9.6 | 0.00 | 0.01 | 0.01 | 37 | 1007.0 |
| 20260507232145 | 58 | 119 | 1.7 | 11.3 | 0.00 | 0.01 | 0.01 | 37 | 1006.9 |
| 20260507231641 | 59 | 301 | 1.7 | 5.2 | 0.00 | 0.01 | 0.01 | 38 | 1006.9 |
| 20260507231138 | 59 | 120 | 1.7 | 6.1 | 0.00 | 0.01 | 0.01 | 37 | 1006.8 |
| 20260507230635 | 59 | 307 | 3.5 | 7.8 | 0.00 | 0.01 | 0.01 | 37 | 1006.9 |
| 20260507230132 | 59 | 328 | 6.1 | 7.8 | 0.00 | 0.01 | 0.01 | 36 | 1006.9 |
| 20260507225626 | 59 | 9 | 5.2 | 7.0 | 0.00 | 0.01 | 0.01 | 38 | 1006.7 |
| 20260507225123 | 59 | 315 | 5.2 | 8.7 | 0.00 | 0.01 | 0.01 | 37 | 1006.6 |
| 20260507224618 | 60 | 311 | 7.8 | 9.6 | 0.00 | 0.01 | 0.01 | 36 | 1006.6 |
| 20260507224115 | 60 | 321 | 4.3 | 20.0 | 0.00 | 0.01 | 0.01 | 36 | 1006.5 |
| 20260507223612 | 60 | 317 | 3.5 | 18.2 | 0.00 | 0.01 | 0.01 | 35 | 1006.4 |
| 20260507223108 | 60 | 306 | 2.6 | 6.1 | 0.00 | 0.01 | 0.01 | 36 | 1006.4 |
| 20260507222606 | 60 | 315 | 6.1 | 10.4 | 0.00 | 0.01 | 0.01 | 35 | 1006.4 |
| 20260507222102 | 61 | 324 | 7.0 | 7.8 | 0.00 | 0.01 | 0.01 | 36 | 1006.1 |
| 20260507221558 | 60 | 296 | 3.5 | 13.9 | 0.00 | 0.01 | 0.01 | 35 | 1006.2 |
| 20260507221055 | 61 | 333 | 10.4 | 10.4 | 0.00 | 0.01 | 0.01 | 34 | 1006.1 |
| 20260507220552 | 61 | 322 | 7.8 | 7.8 | 0.00 | 0.01 | 0.01 | 35 | 1006.1 |
| 20260507220050 | 61 | 311 | 4.3 | 10.4 | 0.00 | 0.01 | 0.01 | 35 | 1006.2 |
| 20260507215546 | 61 | 326 | 1.7 | 11.3 | 0.00 | 0.01 | 0.01 | 34 | 1006.1 |
| 20260507215044 | 61 | 322 | 5.2 | 9.6 | 0.00 | 0.01 | 0.01 | 36 | 1005.9 |
| 20260507214541 | 61 | 324 | 0.0 | 10.4 | 0.00 | 0.01 | 0.01 | 34 | 1006.1 |
| 20260507214037 | 61 | 297 | 1.7 | 11.3 | 0.00 | 0.01 | 0.01 | 34 | 1006.0 |
| 20260507213533 | 62 | 266 | 4.3 | 14.8 | 0.00 | 0.01 | 0.01 | 34 | 1006.1 |
| 20260507213030 | 62 | 261 | 0.0 | 10.4 | 0.00 | 0.01 | 0.01 | 34 | 1005.9 |
| 20260507212526 | 62 | 212 | 1.7 | 11.3 | 0.00 | 0.01 | 0.01 | 35 | 1006.1 |
| 20260507212023 | 62 | 308 | 0.0 | 7.8 | 0.00 | 0.01 | 0.01 | 35 | 1006.1 |
| 20260507211520 | 63 | 330 | 5.2 | 13.9 | 0.00 | 0.01 | 0.01 | 33 | 1006.0 |
| 20260507211016 | 65 | 293 | 1.7 | 7.8 | 0.00 | 0.01 | 0.01 | 35 | 1006.2 |
| 20260507210513 | 64 | 294 | 2.6 | 9.6 | 0.00 | 0.01 | 0.01 | 35 | 1005.9 |
| 20260507210010 | 62 | 312 | 5.2 | 8.7 | 0.00 | 0.01 | 0.01 | 36 | 1006.1 |
| 20260507205507 | 65 | 207 | 3.5 | 5.2 | 0.00 | 0.01 | 0.01 | 36 | 1006.1 |
| 20260507205003 | 62 | 270 | 1.7 | 5.2 | 0.00 | 0.01 | 0.01 | 35 | 1006.0 |
| 20260507204459 | 62 | 320 | 1.7 | 7.8 | 0.00 | 0.01 | 0.01 | 36 | 1005.9 |
| 20260507203957 | 64 | 241 | 1.7 | 18.2 | 0.00 | 0.01 | 0.01 | 34 | 1006.1 |
| 20260507203455 | 65 | 270 | 3.5 | 7.8 | 0.00 | 0.01 | 0.01 | 33 | 1005.9 |
| 20260507202951 | 64 | 317 | 7.0 | 11.3 | 0.00 | 0.01 | 0.01 | 35 | 1005.8 |
| 20260507202447 | 65 | 315 | 5.2 | 8.7 | 0.00 | 0.01 | 0.01 | 33 | 1006.0 |
| 20260507201944 | 65 | 274 | 1.7 | 7.8 | 0.00 | 0.01 | 0.01 | 35 | 1005.9 |
| 20260507201438 | 64 | 56 | 1.7 | 5.2 | 0.00 | 0.01 | 0.01 | 36 | 1006.0 |
| 20260507200936 | 65 | 191 | 6.1 | 12.2 | 0.00 | 0.01 | 0.01 | 35 | 1006.0 |
| 20260507200431 | 65 | 331 | 1.7 | 6.1 | 0.00 | 0.01 | 0.01 | 34 | 1006.0 |
| 20260507195927 | 66 | 289 | 0.9 | 6.1 | 0.00 | 0.01 | 0.01 | 33 | 1006.1 |
| 20260507195425 | 65 | 323 | 7.0 | 10.4 | 0.00 | 0.01 | 0.01 | 34 | 1006.0 |
| 20260507194922 | 64 | 330 | 7.0 | 12.2 | 0.00 | 0.01 | 0.01 | 35 | 1006.1 |
| 20260507194418 | 62 | 325 | 5.2 | 13.0 | 0.00 | 0.01 | 0.01 | 35 | 1006.2 |
| 20260507193915 | 64 | 260 | 3.5 | 14.8 | 0.00 | 0.01 | 0.01 | 35 | 1005.9 |
| 20260507193412 | 65 | 321 | 3.5 | 4.3 | 0.00 | 0.01 | 0.01 | 36 | 1006.0 |
| 20260507192908 | 65 | 2 | 2.6 | 7.0 | 0.00 | 0.01 | 0.01 | 35 | 1006.1 |
| 20260507192404 | 64 | 250 | 3.5 | 17.4 | 0.00 | 0.01 | 0.01 | 35 | 1006.3 |
| 20260507191902 | 64 | 333 | 11.3 | 16.5 | 0.00 | 0.01 | 0.01 | 35 | 1006.2 |
| 20260507191358 | 64 | 244 | 2.6 | 15.6 | 0.00 | 0.01 | 0.01 | 34 | 1006.4 |
| 20260507190854 | 64 | 270 | 0.9 | 9.6 | 0.00 | 0.01 | 0.01 | 35 | 1006.3 |
| 20260507190352 | 65 | 314 | 5.2 | 8.7 | 0.00 | 0.01 | 0.01 | 35 | 1006.3 |
| 20260507185851 | 65 | 26 | 0.9 | 17.4 | 0.00 | 0.01 | 0.01 | 36 | 1006.3 |
| 20260507185348 | 66 | 318 | 8.7 | 8.7 | 0.00 | 0.01 | 0.01 | 37 | 1006.2 |
| 20260507184845 | 66 | 225 | 4.3 | 12.2 | 0.00 | 0.01 | 0.01 | 32 | 1006.2 |
| 20260507184343 | 66 | 303 | 3.5 | 6.1 | 0.00 | 0.01 | 0.01 | 35 | 1006.4 |
| 20260507183839 | 65 | 325 | 8.7 | 9.6 | 0.00 | 0.01 | 0.01 | 36 | 1006.4 |
| 20260507183336 | 64 | 270 | 2.6 | 13.9 | 0.00 | 0.01 | 0.01 | 37 | 1006.2 |
| 20260507182834 | 65 | 346 | 1.7 | 10.4 | 0.00 | 0.01 | 0.01 | 38 | 1006.4 |
| 20260507182329 | 66 | 209 | 0.0 | 7.8 | 0.00 | 0.01 | 0.01 | 38 | 1006.5 |
| 20260507181826 | 66 | 301 | 7.8 | 9.6 | 0.00 | 0.01 | 0.01 | 37 | 1006.4 |
| 20260507181322 | 65 | 309 | 4.3 | 13.9 | 0.00 | 0.01 | 0.01 | 40 | 1006.5 |
| 20260507180819 | 65 | 166 | 0.0 | 7.8 | 0.00 | 0.01 | 0.01 | 40 | 1006.6 |
| 20260507180316 | 64 | 297 | 0.9 | 11.3 | 0.00 | 0.01 | 0.01 | 40 | 1006.4 |
| 20260507175811 | 64 | 343 | 3.5 | 14.8 | 0.00 | 0.01 | 0.01 | 40 | 1006.4 |
| 20260507175309 | 64 | 257 | 2.6 | 15.6 | 0.00 | 0.01 | 0.01 | 42 | 1006.3 |
| 20260507174806 | 63 | 239 | 4.3 | 9.6 | 0.00 | 0.01 | 0.01 | 37 | 1006.2 |
| 20260507174304 | 63 | 328 | 8.7 | 9.6 | 0.00 | 0.01 | 0.01 | 40 | 1006.4 |
| 20260507173801 | 65 | 259 | 4.3 | 6.1 | 0.00 | 0.01 | 0.01 | 41 | 1006.4 |
| 20260507173258 | 64 | 313 | 4.3 | 7.8 | 0.00 | 0.01 | 0.01 | 42 | 1006.4 |
| 20260507172754 | 63 | 229 | 10.4 | 13.9 | 0.00 | 0.01 | 0.01 | 46 | 1006.5 |
| 20260507172251 | 63 | 337 | 7.0 | 12.2 | 0.00 | 0.01 | 0.01 | 50 | 1006.5 |
| 20260507171746 | 62 | 298 | 5.2 | 13.0 | 0.00 | 0.01 | 0.01 | 50 | 1006.5 |
| 20260507171244 | 61 | 304 | 6.1 | 9.6 | 0.00 | 0.01 | 0.01 | 50 | 1006.8 |
| 20260507170741 | 63 | 301 | 3.5 | 16.5 | 0.00 | 0.01 | 0.01 | 47 | 1006.4 |
| 20260507170237 | 64 | 261 | 0.0 | 9.6 | 0.00 | 0.01 | 0.01 | 48 | 1006.7 |
| 20260507165733 | 62 | 275 | 1.7 | 6.1 | 0.00 | 0.01 | 0.01 | 52 | 1006.9 |
| 20260507165229 | 63 | 327 | 5.2 | 10.4 | 0.00 | 0.01 | 0.01 | 53 | 1006.9 |
| 20260507164726 | 61 | 279 | 0.0 | 12.2 | 0.00 | 0.01 | 0.01 | 53 | 1007.1 |
| 20260507164223 | 62 | 319 | 7.8 | 8.7 | 0.00 | 0.01 | 0.01 | 52 | 1007.0 |
| 20260507163720 | 61 | 259 | 3.5 | 7.0 | 0.00 | 0.01 | 0.01 | 54 | 1007.2 |
| 20260507163218 | 62 | 315 | 8.7 | 8.7 | 0.00 | 0.01 | 0.01 | 54 | 1007.2 |
| 20260507162713 | 63 | 265 | 1.7 | 14.8 | 0.00 | 0.01 | 0.01 | 52 | 1007.0 |
| 20260507162210 | 64 | 257 | 1.7 | 7.8 | 0.00 | 0.01 | 0.01 | 50 | 1007.0 |
| 20260507161706 | 64 | 239 | 4.3 | 11.3 | 0.00 | 0.01 | 0.01 | 50 | 1006.9 |
| 20260507161203 | 62 | 297 | 2.6 | 8.7 | 0.00 | 0.01 | 0.01 | 50 | 1007.1 |
| 20260507160659 | 62 | 310 | 2.6 | 7.0 | 0.00 | 0.01 | 0.01 | 52 | 1007.2 |
| 20260507160156 | 62 | 312 | 4.3 | 8.7 | 0.00 | 0.01 | 0.01 | 53 | 1007.1 |
| 20260507155651 | 63 | 315 | 6.1 | 7.8 | 0.00 | 0.01 | 0.01 | 52 | 1007.4 |
| 20260507155142 | 61 | 205 | 2.6 | 13.0 | 0.00 | 0.01 | 0.01 | 53 | 1007.3 |
| 20260507154639 | 61 | 315 | 1.7 | 5.2 | 0.00 | 0.01 | 0.01 | 54 | 1007.4 |
| 20260507154137 | 60 | 201 | 4.3 | 7.0 | 0.00 | 0.01 | 0.01 | 55 | 1007.5 |
| 20260507153633 | 60 | 284 | 5.2 | 7.8 | 0.00 | 0.01 | 0.01 | 55 | 1007.5 |
| 20260507153129 | 61 | 315 | 2.6 | 7.8 | 0.00 | 0.01 | 0.01 | 54 | 1007.5 |
| 20260507152626 | 62 | 313 | 4.3 | 8.7 | 0.00 | 0.01 | 0.01 | 55 | 1007.5 |
| 20260507152122 | 63 | 316 | 9.6 | 11.3 | 0.00 | 0.01 | 0.01 | 50 | 1007.6 |
| 20260507151618 | 61 | 236 | 2.6 | 7.0 | 0.00 | 0.01 | 0.01 | 54 | 1007.7 |
| 20260507151115 | 61 | 258 | 5.2 | 9.6 | 0.00 | 0.01 | 0.01 | 53 | 1007.6 |
| 20260507150612 | 60 | 333 | 2.6 | 13.0 | 0.00 | 0.01 | 0.01 | 57 | 1007.5 |
| 20260507150108 | 61 | 244 | 4.3 | 14.8 | 0.00 | 0.01 | 0.01 | 55 | 1007.6 |
| 20260507145603 | 61 | 258 | 1.7 | 6.1 | 0.00 | 0.01 | 0.01 | 55 | 1007.9 |
| 20260507145101 | 61 | 292 | 2.6 | 7.0 | 0.00 | 0.01 | 0.01 | 54 | 1007.7 |
| 20260507144557 | 61 | 90 | 1.7 | 7.8 | 0.00 | 0.01 | 0.01 | 57 | 1007.6 |
| 20260507144056 | 61 | 354 | 2.6 | 7.0 | 0.00 | 0.01 | 0.01 | 57 | 1007.6 |
| 20260507143552 | 60 | 18 | 2.6 | 15.6 | 0.00 | 0.01 | 0.01 | 58 | 1007.5 |
| 20260507143050 | 60 | 324 | 4.3 | 8.7 | 0.00 | 0.01 | 0.01 | 58 | 1007.4 |
| 20260507142549 | 59 | 314 | 3.5 | 7.0 | 0.00 | 0.01 | 0.01 | 58 | 1007.6 |
| 20260507142047 | 60 | 319 | 1.7 | 7.8 | 0.00 | 0.01 | 0.01 | 56 | 1007.5 |
| 20260507141543 | 59 | 297 | 2.6 | 7.0 | 0.00 | 0.01 | 0.01 | 56 | 1007.4 |
| 20260507141040 | 59 | 238 | 2.6 | 7.8 | 0.00 | 0.01 | 0.01 | 58 | 1007.4 |
| 20260507140537 | 59 | 295 | 0.0 | 7.8 | 0.00 | 0.01 | 0.01 | 57 | 1007.3 |
| 20260507140034 | 58 | 322 | 3.5 | 11.3 | 0.00 | 0.01 | 0.01 | 58 | 1007.7 |
| 20260507135531 | 60 | 315 | 5.2 | 6.1 | 0.00 | 0.01 | 0.01 | 60 | 1007.5 |
| 20260507135028 | 59 | 266 | 2.6 | 5.2 | 0.00 | 0.01 | 0.01 | 64 | 1007.6 |
| 20260507134525 | 59 | 315 | 3.5 | 6.1 | 0.00 | 0.01 | 0.01 | 61 | 1007.6 |
| 20260507134020 | 58 | 323 | 3.5 | 4.3 | 0.00 | 0.01 | 0.01 | 66 | 1007.8 |
| 20260507133517 | 58 | 254 | 6.1 | 6.1 | 0.00 | 0.01 | 0.01 | 65 | 1007.8 |
| 20260507133015 | 58 | 298 | 4.3 | 4.3 | 0.00 | 0.01 | 0.01 | 65 | 1007.8 |
| 20260507132511 | 58 | 240 | 3.5 | 7.0 | 0.00 | 0.01 | 0.01 | 66 | 1007.8 |
| 20260507132007 | 57 | 312 | 0.0 | 4.3 | 0.00 | 0.01 | 0.01 | 68 | 1007.8 |
| 20260507131505 | 55 | 0 | 2.6 | 7.8 | 0.00 | 0.01 | 0.01 | 69 | 1008.0 |
| 20260507131001 | 56 | 246 | 1.7 | 4.3 | 0.00 | 0.01 | 0.01 | 70 | 1008.0 |
| 20260507130459 | 56 | 289 | 2.6 | 5.2 | 0.00 | 0.01 | 0.01 | 71 | 1008.0 |
| 20260507125957 | 55 | 251 | 2.6 | 5.2 | 0.00 | 0.01 | 0.01 | 73 | 1007.8 |
| 20260507125455 | 55 | 307 | 3.5 | 7.0 | 0.00 | 0.01 | 0.01 | 73 | 1008.0 |
| 20260507124952 | 55 | 303 | 1.7 | 6.1 | 0.00 | 0.01 | 0.01 | 74 | 1007.8 |
| 20260507124448 | 54 | 290 | 1.7 | 6.1 | 0.00 | 0.01 | 0.01 | 75 | 1008.1 |
| 20260507123946 | 55 | 319 | 5.2 | 8.7 | 0.00 | 0.01 | 0.01 | 76 | 1008.1 |
| 20260507123444 | 54 | 257 | 1.7 | 5.2 | 0.00 | 0.01 | 0.01 | 77 | 1008.0 |
| 20260507122940 | 55 | 245 | 3.5 | 3.5 | 0.00 | 0.01 | 0.01 | 78 | 1008.1 |
| 20260507122435 | 54 | 322 | 3.5 | 4.3 | 0.00 | 0.01 | 0.01 | 79 | 1008.0 |
| 20260507121932 | 54 | 299 | 1.7 | 3.5 | 0.00 | 0.01 | 0.01 | 81 | 1008.0 |
| 20260507121427 | 53 | 295 | 1.7 | 3.5 | 0.00 | 0.01 | 0.01 | 81 | 1008.0 |
| 20260507120924 | 52 | 340 | 0.0 | 3.5 | 0.00 | 0.01 | 0.01 | 84 | 1007.8 |
| 20260507120420 | 53 | 325 | 0.9 | 3.5 | 0.00 | 0.01 | 0.01 | 84 | 1008.1 |
| 20260507115917 | 52 | 337 | 0.9 | 4.3 | 0.00 | 0.01 | 0.01 | 85 | 1008.3 |
| 20260507115413 | 52 | 302 | 2.6 | 4.3 | 0.00 | 0.01 | 0.01 | 86 | 1008.1 |
| 20260507114909 | 50 | 270 | 0.0 | 3.5 | 0.00 | 0.01 | 0.01 | 89 | 1007.8 |
| 20260507114406 | 49 | 315 | 1.7 | 2.6 | 0.00 | 0.01 | 0.01 | 90 | 1007.6 |
| 20260507113903 | 49 | 306 | 0.9 | 1.7 | 0.00 | 0.01 | 0.01 | 90 | 1007.9 |
| 20260507113400 | 49 | 311 | 2.6 | 3.5 | 0.00 | 0.01 | 0.01 | 90 | 1007.7 |
| 20260507112857 | 49 | 309 | 1.7 | 2.6 | 0.00 | 0.01 | 0.01 | 91 | 1007.8 |
| 20260507112354 | 48 | 286 | 0.0 | 3.5 | 0.00 | 0.01 | 0.01 | 92 | 1008.1 |
| 20260507111852 | 48 | 270 | 1.7 | 2.6 | 0.00 | 0.01 | 0.01 | 93 | 1008.1 |
| 20260507111348 | 48 | 264 | 1.7 | 2.6 | 0.00 | 0.01 | 0.01 | 93 | 1008.1 |
| 20260507110845 | 48 | 283 | 0.9 | 2.6 | 0.00 | 0.01 | 0.01 | 92 | 1007.8 |
| 20260507110341 | 48 | 339 | 1.7 | 2.6 | 0.00 | 0.01 | 0.01 | 92 | 1007.6 |
| 20260507105838 | 48 | 0 | 2.6 | 4.3 | 0.00 | 0.01 | 0.01 | 92 | 1007.7 |
| 20260507105334 | 48 | 0 | 1.7 | 3.5 | 0.00 | 0.01 | 0.01 | 92 | 1007.6 |
| 20260507104831 | 48 | 3 | 1.7 | 5.2 | 0.00 | 0.01 | 0.01 | 92 | 1007.6 |
| 20260507104328 | 48 | 357 | 2.6 | 4.3 | 0.00 | 0.01 | 0.01 | 92 | 1007.5 |
| 20260507103824 | 48 | 301 | 2.6 | 4.3 | 0.00 | 0.01 | 0.01 | 92 | 1007.5 |
| 20260507103320 | 48 | 325 | 4.3 | 5.2 | 0.00 | 0.01 | 0.01 | 92 | 1007.6 |
| 20260507102817 | 48 | 307 | 1.7 | 4.3 | 0.00 | 0.01 | 0.01 | 92 | 1007.3 |
| 20260507102314 | 48 | 295 | 1.7 | 6.1 | 0.00 | 0.01 | 0.01 | 92 | 1007.6 |
| 20260507101810 | 48 | 275 | 1.7 | 7.0 | 0.00 | 0.01 | 0.01 | 91 | 1007.6 |
| 20260507101310 | 48 | 314 | 4.3 | 5.2 | 0.00 | 0.01 | 0.01 | 92 | 1007.4 |
| 20260507100808 | 48 | 270 | 0.0 | 4.3 | 0.00 | 0.01 | 0.01 | 92 | 1007.7 |
| 20260507100306 | 48 | 297 | 0.9 | 9.6 | 0.00 | 0.01 | 0.01 | 92 | 1007.4 |
| 20260507095804 | 48 | 346 | 0.9 | 7.0 | 0.00 | 0.01 | 0.01 | 92 | 1007.4 |
| 20260507095300 | 48 | 324 | 2.6 | 4.3 | 0.00 | 0.01 | 0.01 | 92 | 1007.6 |
| 20260507094757 | 48 | 305 | 3.5 | 6.1 | 0.00 | 0.01 | 0.01 | 92 | 1007.8 |
| 20260507094254 | 48 | 329 | 3.5 | 4.3 | 0.00 | 0.01 | 0.01 | 93 | 1007.5 |
| 20260507093750 | 48 | 289 | 0.9 | 5.2 | 0.00 | 0.01 | 0.01 | 93 | 1007.4 |
| 20260507093249 | 48 | 326 | 0.0 | 10.4 | 0.00 | 0.01 | 0.01 | 93 | 1007.4 |
| 20260507092746 | 48 | 218 | 1.7 | 6.1 | 0.00 | 0.01 | 0.01 | 93 | 1007.3 |
| 20260507092242 | 48 | 320 | 3.5 | 7.0 | 0.00 | 0.01 | 0.01 | 94 | 1007.5 |
| 20260507091739 | 48 | 306 | 2.6 | 5.2 | 0.00 | 0.01 | 0.01 | 93 | 1007.1 |
| 20260507091235 | 48 | 320 | 4.3 | 7.8 | 0.00 | 0.01 | 0.01 | 94 | 1007.4 |
| 20260507090731 | 48 | 307 | 2.6 | 7.8 | 0.00 | 0.01 | 0.01 | 95 | 1007.2 |
| 20260507090228 | 48 | 332 | 3.5 | 6.1 | 0.00 | 0.01 | 0.01 | 95 | 1007.1 |
| 20260507085725 | 48 | 312 | 3.5 | 4.3 | 0.00 | 0.01 | 0.01 | 95 | 1007.5 |
| 20260507085217 | 48 | 263 | 0.9 | 5.2 | 0.00 | 0.01 | 0.01 | 95 | 1007.1 |
| 20260507084714 | 48 | 326 | 3.5 | 5.2 | 0.00 | 0.01 | 0.01 | 95 | 1007.0 |
| 20260507084210 | 48 | 300 | 2.6 | 8.7 | 0.02 | 0.01 | 0.01 | 95 | 1007.0 |
| 20260507083708 | 48 | 315 | 3.5 | 4.3 | 0.02 | 0.01 | 0.01 | 94 | 1007.1 |
| 20260507083204 | 48 | 311 | 2.6 | 4.3 | 0.00 | 0.00 | 0.00 | 94 | 1007.2 |
| 20260507082659 | 49 | 309 | 1.7 | 5.2 | 0.02 | 0.00 | 0.00 | 93 | 1006.9 |
| 20260507082155 | 49 | 310 | 1.7 | 6.1 | 0.02 | 0.00 | 0.00 | 93 | 1006.8 |
| 20260507081652 | 50 | 339 | 6.1 | 15.6 | 0.00 | 0.00 | 0.00 | 91 | 1006.8 |
| 20260507081143 | 50 | 290 | 2.6 | 7.0 | 0.00 | 0.00 | 0.00 | 90 | 1007.0 |
| 20260507080640 | 50 | 307 | 3.5 | 8.7 | 0.00 | 0.00 | 0.00 | 90 | 1007.2 |
| 20260507080136 | 50 | 317 | 4.3 | 6.1 | 0.00 | 0.00 | 0.00 | 91 | 1007.1 |
| 20260507075631 | 50 | 281 | 3.5 | 6.1 | 0.00 | 0.00 | 0.00 | 91 | 1007.1 |
| 20260507075128 | 50 | 315 | 7.8 | 11.3 | 0.00 | 0.00 | 0.00 | 91 | 1006.9 |
| 20260507074625 | 50 | 321 | 5.2 | 7.8 | 0.00 | 0.00 | 0.00 | 91 | 1006.7 |
| 20260507074123 | 50 | 325 | 6.1 | 7.0 | 0.00 | 0.00 | 0.00 | 91 | 1006.8 |
| 20260507073619 | 50 | 317 | 2.6 | 6.1 | 0.00 | 0.00 | 0.00 | 91 | 1006.7 |
| 20260507073115 | 50 | 310 | 3.5 | 7.0 | 0.00 | 0.00 | 0.00 | 91 | 1006.6 |
| 20260507072613 | 50 | 323 | 5.2 | 6.1 | 0.00 | 0.00 | 0.00 | 91 | 1006.6 |
| 20260507072110 | 50 | 304 | 4.3 | 7.8 | 0.00 | 0.00 | 0.00 | 91 | 1006.7 |
| 20260507071607 | 50 | 335 | 2.6 | 7.0 | 0.00 | 0.00 | 0.00 | 91 | 1007.1 |
| 20260507071103 | 50 | 330 | 5.2 | 5.2 | 0.00 | 0.00 | 0.00 | 91 | 1006.6 |
| 20260507070601 | 50 | 329 | 4.3 | 8.7 | 0.00 | 0.00 | 0.00 | 91 | 1006.6 |
| 20260507070057 | 50 | 307 | 2.6 | 7.8 | 0.00 | 0.00 | 0.00 | 90 | 1006.7 |
| 20260507065554 | 50 | 315 | 6.1 | 7.0 | 0.00 | 0.00 | 0.00 | 90 | 1006.5 |
| 20260507065051 | 51 | 243 | 0.0 | 9.6 | 0.00 | 0.00 | 0.00 | 91 | 1006.8 |
| 20260507064549 | 50 | 229 | 1.7 | 3.5 | 0.00 | 0.00 | 0.00 | 91 | 1006.4 |
| 20260507064047 | 50 | 12 | 0.9 | 9.6 | 0.00 | 0.00 | 0.00 | 91 | 1006.5 |
| 20260507063544 | 51 | 315 | 1.7 | 6.1 | 0.00 | 0.00 | 0.00 | 91 | 1006.3 |
| 20260507063041 | 51 | 274 | 0.0 | 7.0 | 0.00 | 0.00 | 0.00 | 91 | 1006.2 |
| 20260507062538 | 51 | 259 | 2.6 | 6.1 | 0.00 | 0.00 | 0.00 | 91 | 1006.0 |
| 20260507062035 | 51 | 339 | 3.5 | 9.6 | 0.00 | 0.00 | 0.00 | 91 | 1006.3 |
| 20260507061533 | 51 | 315 | 8.7 | 8.7 | 0.00 | 0.00 | 0.00 | 91 | 1006.2 |
| 20260507061031 | 51 | 331 | 2.6 | 6.1 | 0.00 | 0.00 | 0.00 | 91 | 1006.3 |
| 20260507060528 | 51 | 296 | 2.6 | 5.2 | 0.00 | 0.00 | 0.00 | 91 | 1006.5 |
| 20260507060025 | 51 | 319 | 5.2 | 7.0 | 0.00 | 0.00 | 0.00 | 91 | 1006.7 |
| 20260507055520 | 51 | 289 | 3.5 | 8.7 | 0.00 | 0.00 | 0.00 | 92 | 1006.6 |
| 20260507055016 | 51 | 357 | 6.1 | 10.4 | 0.00 | 0.00 | 0.00 | 92 | 1006.6 |
| 20260507054513 | 52 | 262 | 2.6 | 9.6 | 0.00 | 0.00 | 0.00 | 93 | 1006.6 |
| 20260507054010 | 52 | 297 | 4.3 | 7.0 | 0.00 | 0.00 | 0.00 | 92 | 1006.7 |
| 20260507053508 | 52 | 350 | 2.6 | 7.0 | 0.00 | 0.00 | 0.00 | 93 | 1006.7 |
| 20260507053006 | 52 | 306 | 4.3 | 7.0 | 0.00 | 0.00 | 0.00 | 93 | 1006.7 |
| 20260507052503 | 52 | 347 | 2.6 | 5.2 | 0.00 | 0.00 | 0.00 | 94 | 1006.6 |
| 20260507052000 | 53 | 257 | 2.6 | 6.1 | 0.00 | 0.00 | 0.00 | 93 | 1006.3 |
| 20260507051458 | 53 | 351 | 2.6 | 7.0 | 0.00 | 0.00 | 0.00 | 93 | 1006.1 |
| 20260507050954 | 53 | 323 | 6.1 | 7.8 | 0.00 | 0.00 | 0.00 | 93 | 1006.3 |
| 20260507050450 | 53 | 315 | 2.6 | 8.7 | 0.00 | 0.00 | 0.00 | 94 | 1006.3 |
| 20260507045948 | 53 | 315 | 6.1 | 7.8 | 0.00 | 0.00 | 0.00 | 93 | 1006.4 |
| 20260507045444 | 53 | 326 | 0.0 | 7.0 | 0.00 | 0.00 | 0.00 | 94 | 1006.3 |
| 20260507044942 | 53 | 266 | 4.3 | 6.1 | 0.00 | 0.00 | 0.00 | 95 | 1006.4 |
| 20260507044438 | 53 | 328 | 5.2 | 6.1 | 0.00 | 0.00 | 0.00 | 95 | 1006.6 |
| 20260507043934 | 54 | 286 | 1.7 | 3.5 | 0.00 | 0.00 | 0.00 | 95 | 1006.7 |
| 20260507043431 | 54 | 320 | 3.5 | 7.8 | 0.00 | 0.00 | 0.00 | 95 | 1006.6 |
| 20260507042927 | 54 | 310 | 4.3 | 8.7 | 0.00 | 0.00 | 0.00 | 95 | 1006.5 |
| 20260507042424 | 53 | 321 | 7.0 | 9.6 | 0.00 | 0.00 | 0.00 | 98 | 1006.4 |
| 20260507041919 | 53 | 293 | 1.7 | 4.3 | 0.00 | 0.00 | 0.00 | 99 | 1006.3 |
| 20260507041416 | 53 | 304 | 3.5 | 9.6 | 0.00 | 0.00 | 0.00 | 99 | 1006.4 |
| 20260507040914 | 53 | 259 | 3.5 | 5.2 | 0.00 | 0.00 | 0.00 | 99 | 1006.3 |
| 20260507040409 | 53 | 290 | 2.6 | 5.2 | 0.00 | 0.00 | 0.00 | 99 | 1006.2 |
| 20260507035905 | 54 | 242 | 2.6 | 7.8 | 0.00 | 0.31 | 0.31 | 99 | 1006.3 |
| 20260507035402 | 55 | 314 | 4.3 | 9.6 | 0.00 | 0.31 | 0.31 | 99 | 1006.2 |
| 20260507034859 | 56 | 270 | 3.5 | 7.0 | 0.00 | 0.31 | 0.31 | 99 | 1005.9 |
| 20260507034356 | 57 | 0 | 2.6 | 7.8 | 0.00 | 0.31 | 0.31 | 99 | 1005.9 |
| 20260507033854 | 57 | 99 | 0.0 | 14.8 | 0.00 | 0.31 | 0.31 | 99 | 1005.9 |
| 20260507033352 | 57 | 314 | 6.1 | 7.0 | 0.00 | 0.31 | 0.31 | 99 | 1005.9 |
| 20260507032848 | 57 | 320 | 2.6 | 10.4 | 0.00 | 0.31 | 0.31 | 99 | 1005.9 |
| 20260507032345 | 57 | 319 | 5.2 | 6.1 | 0.00 | 0.31 | 0.31 | 99 | 1005.9 |
| 20260507031841 | 54 | 344 | 2.6 | 7.0 | 0.00 | 0.31 | 0.31 | 99 | 1006.0 |
| 20260507031338 | 52 | 0 | 0.9 | 2.6 | 0.00 | 0.31 | 0.31 | 99 | 1005.6 |
| 20260507030834 | 51 | 314 | 4.3 | 4.3 | 0.00 | 0.31 | 0.31 | 99 | 1005.6 |
| 20260507030332 | 52 | 172 | 0.0 | 2.6 | 0.00 | 0.31 | 0.31 | 99 | 1005.7 |
| 20260507025829 | 52 | 168 | 0.9 | 3.5 | 0.00 | 0.31 | 0.31 | 99 | 1005.5 |
| 20260507025326 | 52 | 145 | 2.6 | 3.5 | 0.00 | 0.31 | 0.31 | 99 | 1005.6 |
| 20260507024824 | 52 | 158 | 2.6 | 3.5 | 0.00 | 0.31 | 0.31 | 99 | 1005.6 |
| 20260507024321 | 52 | 170 | 1.7 | 4.3 | 0.00 | 0.31 | 0.31 | 99 | 1005.6 |
| 20260507023817 | 51 | 128 | 1.7 | 2.6 | 0.00 | 0.31 | 0.31 | 99 | 1005.5 |
| 20260507023313 | 51 | 194 | 0.0 | 2.6 | 0.00 | 0.31 | 0.31 | 99 | 1005.7 |
| 20260507022811 | 51 | 210 | 1.7 | 2.6 | 0.00 | 0.31 | 0.31 | 99 | 1005.7 |
| 20260507022307 | 52 | 68 | 0.0 | 5.2 | 0.00 | 0.31 | 0.31 | 99 | 1005.9 |
| 20260507021803 | 51 | 73 | 1.7 | 1.7 | 0.00 | 0.31 | 0.31 | 99 | 1005.8 |
| 20260507021259 | 51 | 35 | 0.9 | 2.6 | 0.00 | 0.31 | 0.31 | 99 | 1005.7 |
| 20260507020757 | 52 | 0 | 0.0 | 2.6 | 0.00 | 0.31 | 0.31 | 99 | 1005.9 |
| 20260507020253 | 52 | 75 | 0.9 | 1.7 | 0.00 | 0.31 | 0.31 | 99 | 1006.0 |
| 20260507015751 | 52 | 90 | 0.0 | 1.7 | 0.00 | 0.31 | 0.31 | 99 | 1006.1 |
| 20260507015248 | 52 | 35 | 0.0 | 2.6 | 0.00 | 0.31 | 0.31 | 99 | 1006.0 |
| 20260507014745 | 53 | 157 | 0.0 | 2.6 | 0.00 | 0.31 | 0.31 | 99 | 1006.2 |
| 20260507014241 | 53 | 182 | 2.6 | 4.3 | 0.00 | 0.31 | 0.31 | 99 | 1006.1 |
| 20260507013738 | 54 | 203 | 2.6 | 4.3 | 0.00 | 0.31 | 0.31 | 99 | 1006.1 |
| 20260507013236 | 54 | 195 | 1.7 | 2.6 | 0.00 | 0.31 | 0.31 | 99 | 1006.3 |
| 20260507012733 | 54 | 182 | 2.6 | 4.3 | 0.00 | 0.31 | 0.31 | 99 | 1006.0 |
| 20260507012228 | 54 | 217 | 3.5 | 5.2 | 0.00 | 0.31 | 0.31 | 99 | 1006.3 |
| 20260507011726 | 54 | 221 | 4.3 | 6.1 | 0.02 | 0.31 | 0.31 | 99 | 1006.3 |
| 20260507011222 | 54 | 224 | 7.0 | 7.0 | 0.02 | 0.31 | 0.31 | 99 | 1006.3 |
| 20260507010722 | 54 | 152 | 1.7 | 7.0 | 0.00 | 0.31 | 0.31 | 99 | 1006.1 |
| 20260507010218 | 54 | 194 | 5.2 | 7.0 | 0.00 | 0.31 | 0.31 | 99 | 1006.2 |
| 20260507005716 | 54 | 225 | 5.2 | 10.4 | 0.00 | 0.31 | 0.31 | 99 | 1006.3 |